Tracking 32412 objects as of 6-Dec-2025
HD Live streaming from Space Station
objects crossing your sky now

COSMOS 626

Track COSMOS 626 now!
10-day predictions
COSMOS 626 is classified as:


NORAD ID: 7005
Int'l Code: 1973-108A
Perigee: 917.8 km
Apogee: 985.3 km
Inclination: 65.4 °
Period: 103.9 minutes
Semi major axis: 7322 km
RCS: 3.2756 m2 (large)
Launch date: December 27, 1973
Source: Commonwealth of Independent States (former USSR) (CIS)
Launch site: TYURATAM MISSILE AND SPACE COMPLEX (TTMTR)
Your satellite tracking list
Your tracking list is empty




NASA's NSSDC Master Catalog

Two Line Element Set (TLE):
1 07005U 73108A   25340.61201914 -.00000014  00000-0  62610-4 0  9994
2 07005  65.4374 225.5454 0046105 151.4467 208.9138 13.85504507627974
Source of the keplerian elements: AFSPC